sat.trackr.live / text

‹ back to catalog

STARLINK-36901

NORAD 67974 · 2026-038P

PAYLOAD ACTIVE UNKNOWN

§ Identity

Operator
Country
US
Launch date
2026-02-25
Launch site
AFWTR
Launch vehicle
Mass (kg)
RCS (m²)

Purposes: comms

External: N2YO · Heavens-Above · Gunter

§ Orbital elements

Epoch: 2026-05-24T23:51:17.743104Z

Period
93.91 min
Inclination
97.2830°
Eccentricity
0.0002389
Mean motion
15.33459450 rev/d
Perigee alt
463.9 km
Apogee alt
467.1 km
Semi-major
6,843.6 km
B*
5.1268e-4
RAAN
155.0340°
Arg perigee
111.2594°
Mean anomaly
248.8904°
Rev number
1,493

§ Raw data

STARLINK-369011 67974U 26038P   26144.99395536  .00016521  00000+0  51268-3 0  99972 67974  97.2830 155.0340 0002389 111.2594 248.8904 15.33459450 14938

JSON: /api/v1/satellites/67974 · /tle

For live sub-satellite position, see the globe view (requires WebGL).

§ Visibility from observer

Set your observer location to see the next 7 days of passes ≥ 10°. The values pass through the URL so the page stays shareable.

No JS? Fill the form by hand. The geolocation button needs JavaScript.